Tiempo atmosférico en la estación meteorológica de Soba, Alto Miera, Cantabria (695 m.)



Fecha
DESCASC
Temp. máxima en grados centígrados (hora)
DESCASC
Temp. mínima en grados centígrados (hora)
DESCASC
Temp. media en grados centígrados
DESCASC
Racha de viento máxima en m/sg (hora)
DESCASC
Velocidad máxima media en intervalos de 10 minutos(hora)
DESCASC
Precipitaciones diarias en mm
DESCASC
Precipitaciones de 00:00 a 06:00 en mm
DESCASC
Precipitaciones de 06:00 a 12:00 en mm
DESCASC
Precipitaciones de 12:00 a 18:00 en mm
DESCASC
Precipitaciones de 18:00 a 24:00 en mm
DESCASC
22-08-2019 24.9 (16:10) 11.2 (05:20) 18 10 (11:10) 3.61 (11:50) 0 0 0 0 0
21-08-2019 21.6 (15:30) 12.6 (08:50) 17.1 11.67 (05:40) 4.72 (05:40) 0 0 0 0 0
20-08-2019 18.9 (18:20) 11.9 (04:40) 15.4 7.22 (12:50) 3.89 (12:50) 0.8 0.2 0.6 0 0
19-08-2019 16.1 (15:00) 11.3 (08:00) 13.7 7.5 (16:30) 3.61 (15:40) 0 0 0 0 0
18-08-2019 19.7 (10:20) 11.9 (00:00) 15.8 5.28 (15:20) 3.06 (14:30) 4.8 0 0 2.8 2
17-08-2019 25.2 (14:40) 14.5 (00:00) 19.9 5 (16:20) 3.06 (16:20) 0 0 0 0 0
16-08-2019 25.5 (17:10) 10.7 (00:00) 18.1 6.11 (13:10) 3.33 (13:20) 0 0 0 0 0
15-08-2019 19.2 (14:20) 13.8 (00:00) 16.5 5.28 (14:30) 3.06 (14:40) 7.6 5.4 2.2 0 0
14-08-2019 22.9 (14:40) 11.2 (00:00) 17 5.56 (14:20) 3.33 (13:50) 0.2 0 0 0 0.2
13-08-2019 20 (19:20) 8.5 (00:00) 14.3 5.56 (15:00) 2.78 (15:00) 0 0 0 0 0
12-08-2019 14.7 (12:30) 10 (00:00) 12.3 7.22 (12:20) 4.17 (14:00) 1.6 1.2 0 0.4 0
11-08-2019 16.6 (11:40) 11.1 (00:00) 13.9 6.39 (17:20) 3.06 (17:20) 18 5.4 2.6 9.8 0.2
10-08-2019 17.4 (13:10) 12.3 (00:00) 14.8 6.67 (13:20) 3.61 (13:30) 0 0 0 0 0
09-08-2019 25.8 (00:00) 15 (00:00) 20.4 19.17 (01:20) 7.5 (01:20) 0 0 0 0 0
08-08-2019 29.1 (18:30) 18.3 (00:00) 23.7 11.39 (22:00) 5.28 (23:10) 0 0 0 0 0
07-08-2019 25.5 (15:20) 15.4 (00:00) 20.4 8.89 (23:20) 3.89 (23:20) 0.4 0.4 0 0 0
06-08-2019 24.2 (15:20) 13.4 (00:00) 18.8 6.39 (15:40) 3.61 (15:40) 0 0 0 0 0
05-08-2019 23 (14:40) 13.1 (00:00) 18.1 5.83 (15:30) 3.33 (15:20) 0 0 0 0 0
04-08-2019 21.3 (13:10) 12.1 (00:00) 16.7 5 (15:30) 3.61 (15:30) 0.6 0 0 0 0.6
03-08-2019 25.1 (13:50) 13 (00:00) 19.1 6.11 (15:50) 3.89 (16:10) 0.2 0 0 0 0.2
02-08-2019 24.3 (17:10) 10.8 (00:00) 17.5 5.56 (15:20) 3.06 (17:20) 0 0 0 0 0
01-08-2019 17.6 (15:10) 11.7 (00:00) 14.7 3.89 (05:00) 2.5 (15:40) 0 0 0 0 0
31-07-2019 20.2 (16:40) 9 (00:00) 14.6 5 (17:20) 3.33 (17:20) 0 0 0 0 0
30-07-2019 16.2 (14:30) 11.2 (00:00) 13.7 7.22 (05:40) 3.89 (12:00) 5.8 5.2 0.2 0 0.4
29-07-2019 20.2 (13:10) 12.6 (00:00) 16.4 6.94 (13:30) 4.72 (13:30) 8.8 0 0 0 8.8
28-07-2019 21.1 (18:00) 11.6 (00:00) 16.4 5.28 (16:30) 3.33 (16:30) 10 9.8 0.2 0 0
27-07-2019 14.2 (13:50) 11.7 (00:00) 12.9 6.67 (19:30) 2.5 (19:40) 28 11 4.2 4.4 8.4
26-07-2019 16.9 (00:00) 12.7 (00:00) 14.8 6.11 (10:30) 3.06 (16:40) 14.4 1 4.2 5.8 3.4

Gráficas

Temp. máximas Temp. mínimas Temp. medias Precipitaciones Rachas de viento máximas Velocidades máximas media en intervalos de 10 minutos

Datos horarios

Fecha y hora oficial Temperatura (ºC) Velocidad del viento (km/h) Dirección del viento Racha (km/h) Dirección de racha Precipitación (mm) Presión (hPa) Tendencia (hPa) Humedad (%)
2019-08-24 23:00:00 15.3 3 Sudeste 7 Este 0 -- -- 95
2019-08-24 22:00:00 16 3 Sur 6 Oeste 0 -- -- 99
2019-08-24 21:00:00 16.1 3 Noroeste 10 Norte 0 -- -- 98
2019-08-24 20:00:00 16.5 6 Norte 12 Noroeste 0.2 -- -- 98
2019-08-24 19:00:00 16.9 6 Noroeste 10 Noroeste 0 -- -- 98
2019-08-24 18:00:00 17.6 6 Noroeste 14 Noroeste 0 -- -- 97
2019-08-24 17:00:00 19.5 9 Noroeste 23 Noroeste 0 -- -- 90
2019-08-24 16:00:00 23.3 13 Noroeste 18 Norte 0 -- -- 80
2019-08-24 15:00:00 24.8 10 Noroeste 15 Norte 0 -- -- 75
2019-08-24 14:00:00 25.5 7 Noroeste 11 Noroeste 0 -- -- 68
2019-08-24 13:00:00 25.5 4 Oeste 14 Noroeste 0 -- -- 59
2019-08-24 12:00:00 27 3 Noroeste 8 Noroeste 0 -- -- 50
2019-08-24 11:00:00 25.2 3 Noroeste 6 Noroeste 0 -- -- 49
2019-08-24 10:00:00 23 3 Sudeste 10 Este 0 -- -- 53
2019-08-24 09:00:00 21.6 2 Nordeste 12 Sur 0 -- -- 51
2019-08-24 08:00:00 21.5 3 Este 9 Nordeste 0 -- -- 47
2019-08-24 07:00:00 20.6 0 Calma 9 Sudeste 0 -- -- 50
2019-08-24 06:00:00 21.4 3 Sudeste 9 Sudeste 0 -- -- 44
2019-08-24 05:00:00 21.1 4 Sudeste 10 Sur 0 -- -- 39
2019-08-24 04:00:00 19.6 7 Sur 18 Sur 0 -- -- 44
2019-08-24 03:00:00 19.4 7 Sur 15 Sur 0 -- -- 45
2019-08-24 02:00:00 20.9 8 Sudeste 15 Sur 0 -- -- 39
2019-08-24 01:00:00 19.7 6 Sur 14 Este 0 -- -- 45
2019-08-24 00:00:00 20.6 8 Sudeste 14 Sur 0 -- -- 42
2019-08-23 23:00:00 20.2 6 Sur 14 Sudeste 0 -- -- 44
2019-08-23 22:00:00 21 9 Sudeste 17 Sudeste 0 -- -- 43
2019-08-23 21:00:00 20.4 4 Sudeste 9 Sur 0 -- -- 50
2019-08-23 20:00:00 23.7 4 Sur 10 Sudeste 0 -- -- 50
2019-08-23 19:00:00 27.9 3 Sur 9 Noroeste 0 -- -- 43
2019-08-23 18:00:00 29.7 7 Noroeste 18 Noroeste 0 -- -- 30
2019-08-23 17:00:00 29.7 8 Noroeste 19 Noroeste 0 -- -- 32
2019-08-23 16:00:00 30.2 5 Oeste 14 Noroeste 0 -- -- 29
2019-08-23 15:00:00 29.2 8 Norte 17 Noroeste 0 -- -- 27
2019-08-23 14:00:00 29.3 4 Noroeste 15 Noroeste 0 -- -- 27
2019-08-23 13:00:00 28.7 4 Oeste 15 Sur 0 -- -- 26
2019-08-23 12:00:00 27.6 5 Sur 19 Sur 0 -- -- 30
2019-08-23 11:00:00 25.4 8 Sudeste 18 Este 0 -- -- 32
2019-08-23 10:00:00 22 9 Este 17 Sudeste 0 -- -- 41
2019-08-23 09:00:00 18.1 8 Sudeste 13 Este 0 -- -- 48
2019-08-23 08:00:00 16.2 6 Sur 10 Sur 0 -- -- 48
2019-08-23 07:00:00 13.5 2 Sudeste 7 Sudeste 0 -- -- 41
2019-08-23 06:00:00 12.9 2 Sudeste 8 Sudeste 0 -- -- 35
2019-08-23 05:00:00 12.5 3 Sudeste 8 Sur 0 -- -- 38
2019-08-23 04:00:00 12.4 4 Sudeste 9 Sudeste 0 -- -- 42
2019-08-23 03:00:00 13.5 4 Sudeste 10 Este 0 -- -- 36
2019-08-23 02:00:00 14.4 0 Calma 16 Sudeste 0 -- -- 35
2019-08-23 01:00:00 12.8 2 Este 7 Sudeste 0 -- -- 44
2019-08-23 00:00:00 13 3 Sudeste 9 Sudeste 0 -- -- 59
2019-08-22 23:00:00 13.7 4 Sudeste 8 Sudeste 0 -- -- 58
2019-08-22 22:00:00 15.5 0 Calma 9 Este 0 -- -- 61
2019-08-22 21:00:00 17.7 0 Calma 5 Sur 0 -- -- 81
2019-08-22 20:00:00 22.4 0 Calma 12 Norte 0 -- -- 68
2019-08-22 19:00:00 23.7 7 Noroeste 14 Noroeste 0 -- -- 60
2019-08-22 18:00:00 24.6 6 Noroeste 15 Noroeste 0 -- -- 57
2019-08-22 17:00:00 24.4 8 Noroeste 17 Noroeste 0 -- -- 55
2019-08-22 16:00:00 24.8 6 Noroeste 16 Este 0 -- -- 47
2019-08-22 15:00:00 24 7 Noroeste 13 Norte 0 -- -- 45
2019-08-22 14:00:00 23.4 4 Noroeste 14 Norte 0 -- -- 40
2019-08-22 13:00:00 22.4 4 Noroeste 26 Sudeste 0 -- -- 42
2019-08-22 12:00:00 20.9 6 Noroeste 36 Sudeste 0 -- -- 47
2019-08-22 11:00:00 19.7 6 Sudeste 31 Sudeste 0 -- -- 47
2019-08-22 10:00:00 16.5 4 Este 9 Este 0 -- -- 57
2019-08-22 09:00:00 13.1 4 Nordeste 9 Nordeste 0 -- -- 67
2019-08-22 08:00:00 12.1 0 Calma 9 Norte 0 -- -- 70
2019-08-22 07:00:00 11.3 0 Calma 5 Sudoeste 0 -- -- 76
2019-08-22 06:00:00 11.5 2 Sudeste 5 Sur 0 -- -- 76
2019-08-22 05:00:00 11.3 0 Calma 8 Sudeste 0 -- -- 80
2019-08-22 04:00:00 11.4 5 Sur 9 Sudeste 0 -- -- 77
2019-08-22 03:00:00 11.7 3 Sudeste 21 Sudeste 0 -- -- 76
2019-08-22 02:00:00 12.4 6 Sur 15 Sur 0 -- -- 73
2019-08-22 01:00:00 12.2 2 Sudeste 6 Sur 0 -- -- 80
2019-08-22 00:00:00 13.2 3 Sudeste 10 Sudeste 0 -- -- 84
2019-08-21 23:00:00 14.2 0 Calma 6 Sur 0 -- -- 96
2019-08-21 22:00:00 15.3 0 Calma 5 Norte 0 -- -- 94
2019-08-21 21:00:00 16.6 3 Norte 12 Noroeste 0 -- -- 90
2019-08-21 20:00:00 17.6 8 Norte 13 Noroeste 0 -- -- 88
2019-08-21 19:00:00 18.2 7 Noroeste 15 Noroeste 0 -- -- 87
2019-08-21 18:00:00 19.1 9 Noroeste 16 Norte 0 -- -- 83
2019-08-21 17:00:00 20.1 8 Norte 15 Noroeste 0 -- -- 82
2019-08-21 16:00:00 20.2 9 Noroeste 19 Norte 0 -- -- 78
2019-08-21 15:00:00 20.7 6 Noroeste 12 Noroeste 0 -- -- 74
2019-08-21 14:00:00 20 9 Noroeste 17 Oeste 0 -- -- 72
2019-08-21 13:00:00 20.1 9 Noroeste 16 Noroeste 0 -- -- 72
2019-08-21 12:00:00 18.9 5 Noroeste 13 Noroeste 0 -- -- 70
2019-08-21 11:00:00 16.6 4 Noroeste 6 Noroeste 0 -- -- 75
2019-08-21 10:00:00 14.9 3 Noroeste 7 Noroeste 0 -- -- 83
2019-08-21 09:00:00 12.7 2 Nordeste 8 Norte 0 -- -- 89
2019-08-21 08:00:00 13.1 5 Norte 30 Sudeste 0 -- -- 85
2019-08-21 07:00:00 14.5 11 Sudeste 38 Sudeste 0 -- -- 77
2019-08-21 06:00:00 14.8 15 Sudeste 42 Sudeste 0 -- -- 77
2019-08-21 05:00:00 14.6 14 Sudeste 32 Este 0 -- -- 77
2019-08-21 04:00:00 14.6 14 Sudeste 31 Sudeste 0 -- -- 79
2019-08-21 03:00:00 14.5 3 Sudoeste 32 Este 0 -- -- 79
2019-08-21 02:00:00 14.7 15 Sur 31 Sur 0 -- -- 77
2019-08-21 01:00:00 14.4 4 Sudoeste 21 Sudoeste 0 -- -- 79
2019-08-21 00:00:00 13.1 5 Sudeste 12 Norte 0 -- -- 88
2019-08-20 23:00:00 13.3 3 Este 14 Sudoeste 0 -- -- 88
2019-08-20 22:00:00 14.4 4 Sur 23 Sur 0 -- -- 77
2019-08-20 21:00:00 15.6 0 Calma 14 Sudeste 0 -- -- 80
2019-08-20 20:00:00 18 5 Sudeste 21 Norte 0 -- -- 66
2019-08-20 19:00:00 17.7 5 Sudeste 22 Noroeste 0 -- -- 69
2019-08-20 18:00:00 18.1 4 Norte 18 Noroeste 0 -- -- 65
2019-08-20 17:00:00 18.7 10 Noroeste 19 Noroeste 0 -- -- 66
2019-08-20 16:00:00 17.2 8 Noroeste 20 Noroeste 0 -- -- 74
2019-08-20 15:00:00 17.9 6 Noroeste 12 Noroeste 0 -- -- 75
2019-08-20 14:00:00 16.7 3 Noroeste 11 Norte 0 -- -- 75
2019-08-20 13:00:00 13.9 9 Noroeste 26 Norte 0 -- -- 88
2019-08-20 12:00:00 14.2 8 Noroeste 18 Noroeste 0 -- -- 94
2019-08-20 11:00:00 13.9 4 Noroeste 16 Noroeste 0 -- -- 97
2019-08-20 10:00:00 12.8 4 Norte 9 Noroeste 0 -- -- 99
2019-08-20 09:00:00 12.3 5 Noroeste 9 Noroeste 0 -- -- 99
2019-08-20 08:00:00 12.1 5 Noroeste 9 Norte 0.6 -- -- 99
2019-08-20 07:00:00 12.1 0 Calma 3 Sur 0 -- -- 94
2019-08-20 06:00:00 12.2 2 Norte 12 Noroeste 0 -- -- 95
2019-08-20 05:00:00 12 6 Noroeste 19 Norte 0.2 -- -- 99
2019-08-20 04:00:00 12.4 8 Noroeste 15 Norte 0 -- -- 96
2019-08-20 03:00:00 13 6 Norte 18 Norte 0 -- -- 90
2019-08-20 02:00:00 13 4 Oeste 11 Oeste 0 -- -- 91
2019-08-20 01:00:00 13.2 4 Norte 24 Norte 0 -- -- 89
2019-08-20 00:00:00 12.5 6 Noroeste 18 Norte 0 -- -- 96
2019-08-19 23:00:00 12.5 3 Este 12 Norte 0 -- -- 98
2019-08-19 22:00:00 12.7 4 Norte 13 Noroeste 0 -- -- 98
2019-08-19 21:00:00 13.1 5 Noroeste 15 Noroeste 0 -- -- 95
2019-08-19 20:00:00 13.5 7 Noroeste 19 Noroeste 0 -- -- 91
2019-08-19 19:00:00 14.4 7 Noroeste 14 Norte 0 -- -- 86
2019-08-19 18:00:00 14.7 5 Noroeste 16 Sur 0 -- -- 83
2019-08-19 17:00:00 14.8 3 Oeste 27 Sudeste 0 -- -- 82
2019-08-19 16:00:00 14.9 9 Sudeste 26 Este 0 -- -- 84
2019-08-19 15:00:00 16.1 4 Norte 20 Este 0 -- -- 77
2019-08-19 14:00:00 15.3 6 Norte 18 Nordeste 0 -- -- 80
2019-08-19 13:00:00 14.5 3 Noroeste 12 Norte 0 -- -- 84
2019-08-19 12:00:00 13.2 4 Noroeste 13 Noroeste 0 -- -- 94
2019-08-19 11:00:00 12.7 5 Noroeste 10 Norte 0 -- -- 98
2019-08-19 10:00:00 12.3 3 Noroeste 6 Noroeste 0 -- -- 100
2019-08-19 09:00:00 11.6 2 Noroeste 6 Noroeste 0 -- -- 100
2019-08-19 08:00:00 11.3 5 Norte 13 Noroeste 0 -- -- 100
2019-08-19 07:00:00 11.7 4 Noroeste 9 Noroeste 0 -- -- 100
2019-08-19 06:00:00 11.8 4 Noroeste 6 Noroeste 0 -- -- 100
2019-08-19 05:00:00 11.8 2 Noroeste 5 Noroeste 0 -- -- 100
2019-08-19 04:00:00 12 2 Noroeste 5 Noroeste 0 -- -- 100
2019-08-19 03:00:00 12.2 2 Noroeste 8 Noroeste 0 -- -- 100
2019-08-19 02:00:00 12.4 0 Calma 7 Noroeste 0 -- -- 99
2019-08-19 01:00:00 12.2 2 Sudeste 5 Sudeste 0 -- -- 99
2019-08-19 00:00:00 12 0 Calma 4 Noroeste 0 -- -- 100
2019-08-18 23:00:00 12 4 Noroeste 16 Noroeste 0.4 -- -- 100
2019-08-18 22:00:00 12.6 3 Noroeste 7 Noroeste 0.2 -- -- 100
2019-08-18 21:00:00 12.8 0 Calma 17 Noroeste 0.8 -- -- 100
2019-08-18 20:00:00 13.4 8 Noroeste 17 Noroeste 0.2 -- -- 99
2019-08-18 19:00:00 14.1 8 Noroeste 18 Noroeste 0.4 -- -- 98
2019-08-18 18:00:00 15 4 Norte 10 Norte 0.2 -- -- 98
2019-08-18 17:00:00 14.8 8 Noroeste 17 Norte 0.8 -- -- 98
2019-08-18 16:00:00 15.6 9 Noroeste 19 Noroeste 1.2 -- -- 99
2019-08-18 15:00:00 16.3 8 Norte 18 Norte 0.6 -- -- 97
2019-08-18 14:00:00 17.2 8 Noroeste 18 Noroeste 0 -- -- 95
2019-08-18 13:00:00 19.5 4 Noroeste 13 Noroeste 0 -- -- 84
2019-08-18 12:00:00 18.8 7 Noroeste 19 Noroeste 0 -- -- 87
2019-08-18 11:00:00 19.3 9 Noroeste 17 Noroeste 0 -- -- 85
2019-08-18 10:00:00 19.2 0 Calma 5 Noroeste 0 -- -- 86
2019-08-18 09:00:00 17.9 2 Sur 6 Sur 0 -- -- 91
2019-08-18 08:00:00 16.4 3 Sur 11 Sudeste 0 -- -- 92
2019-08-18 07:00:00 15.9 4 Sudeste 12 Sudeste 0 -- -- 88
2019-08-18 06:00:00 16 2 Sur 10 Sudeste 0 -- -- 79
2019-08-18 05:00:00 17.5 4 Sudeste 11 Sudeste 0 -- -- 65
2019-08-18 04:00:00 18.2 4 Sudeste 12 Sudeste 0 -- -- 64
2019-08-18 03:00:00 18.1 5 Sudeste 10 Sudeste 0 -- -- 75
2019-08-18 02:00:00 16.1 4 Sur 9 Sudeste 0 -- -- 89
2019-08-18 01:00:00 16.2 0 Calma 16 Sudeste 0 -- -- 91
2019-08-18 00:00:00 16.8 7 Sudeste 16 Sudeste 0 -- -- 93
2019-08-17 23:00:00 17.6 2 Sudeste 13 Sudeste 0 -- -- 89
2019-08-17 22:00:00 18.8 7 Sudeste 12 Sudeste 0 -- -- 90
2019-08-17 21:00:00 19.3 5 Norte 9 Noroeste 0 -- -- 87
2019-08-17 20:00:00 20.8 6 Noroeste 14 Noroeste 0 -- -- 81
2019-08-17 19:00:00 23.5 9 Noroeste 17 Noroeste 0 -- -- 72
2019-08-17 18:00:00 24.7 8 Noroeste 18 Noroeste 0 -- -- 72
2019-08-17 17:00:00 25.2 8 Noroeste 18 Noroeste 0 -- -- 66
2019-08-17 16:00:00 24.8 9 Noroeste 17 Norte 0 -- -- 68
2019-08-17 15:00:00 25.1 9 Noroeste 17 Noroeste 0 -- -- 70
2019-08-17 14:00:00 25 9 Noroeste 14 Noroeste 0 -- -- 59
2019-08-17 13:00:00 24.5 6 Noroeste 12 Noroeste 0 -- -- 54
2019-08-17 12:00:00 23.5 5 Noroeste 11 Noroeste 0 -- -- 56
2019-08-17 11:00:00 22.6 6 Noroeste 12 Oeste 0 -- -- 59
2019-08-17 10:00:00 19.5 0 Calma 9 Sudeste 0 -- -- 65
2019-08-17 09:00:00 17.7 5 Sudeste 15 Sudeste 0 -- -- 68
2019-08-17 08:00:00 15.5 4 Sudeste 12 Sudeste 0 -- -- 72
2019-08-17 07:00:00 15.4 3 Sur 6 Sudeste 0 -- -- 72
2019-08-17 06:00:00 15.9 0 Calma 8 Este 0 -- -- 71
2019-08-17 05:00:00 15 3 Sudeste 10 Sur 0 -- -- 78
2019-08-17 04:00:00 16.7 6 Sudeste 16 Sudeste 0 -- -- 70
2019-08-17 03:00:00 14.8 3 Este 5 Sudeste 0 -- -- 81
2019-08-17 02:00:00 15.2 2 Sudeste 7 Sudeste 0 -- -- 80
2019-08-17 01:00:00 16.8 8 Sudeste 14 Sudeste 0 -- -- 69
2019-08-17 00:00:00 16.3 3 Sur 13 Sudeste 0 -- -- 67
2019-08-16 23:00:00 15.3 5 Sudeste 13 Sudeste 0 -- -- 79
2019-08-16 22:00:00 15.9 3 Sudeste 8 Sur 0 -- -- 85
2019-08-16 21:00:00 18.4 2 Sudeste 5 Sudeste 0 -- -- 80
2019-08-16 20:00:00 21.4 3 Sudoeste 17 Norte 0 -- -- 70
2019-08-16 19:00:00 24.2 8 Noroeste 15 Noroeste 0 -- -- 58
2019-08-16 18:00:00 24.8 6 Noroeste 19 Noroeste 0 -- -- 59
2019-08-16 17:00:00 25.3 6 Noroeste 16 Noroeste 0 -- -- 59
2019-08-16 16:00:00 24.5 8 Noroeste 16 Noroeste 0 -- -- 64
2019-08-16 15:00:00 23.7 9 Noroeste 16 Noroeste 0 -- -- 69
2019-08-16 14:00:00 23.3 9 Noroeste 22 Noroeste -- -- -- 65
2019-08-16 13:00:00 23.8 8 Noroeste 13 Oeste -- -- -- 59
2019-08-16 12:00:00 22.4 3 Noroeste 9 Noroeste -- -- -- 57
2019-08-16 11:00:00 21.8 0 Calma 4 Sudeste 0 -- -- 53
2019-08-16 10:00:00 17.3 0 Calma 7 Sudeste 0 -- -- 64
2019-08-16 09:00:00 14.2 3 Sudeste 10 Sudeste 0 -- -- 66
2019-08-16 08:00:00 12.9 3 Sur 12 Sudeste 0 -- -- 74
2019-08-16 07:00:00 12.6 0 Calma 5 Sudeste 0 -- -- 77
2019-08-16 06:00:00 12.6 0 Calma 14 Sudeste 0 -- -- 78
2019-08-16 05:00:00 12.1 3 Sudeste 8 Sudeste 0 -- -- 77
2019-08-16 04:00:00 11.3 0 Calma 6 Sur 0 -- -- 83
2019-08-16 03:00:00 10.9 0 Calma 10 Sudeste 0 -- -- 92
2019-08-16 02:00:00 11 0 Calma 8 Sur 0 -- -- 94
2019-08-16 01:00:00 11.5 0 Calma 8 Sudeste 0 -- -- 93
2019-08-16 00:00:00 13.8 5 Sur 11 Sudeste 0 -- -- 93
2019-08-15 23:00:00 14.6 0 Calma 3 Noroeste 0 -- -- 97
2019-08-15 22:00:00 14.6 0 Calma 3 Sur 0 -- -- 96
2019-08-15 21:00:00 14.9 0 Calma 3 Sur 0 -- -- 92
2019-08-15 20:00:00 16.3 0 Calma 10 Noroeste 0 -- -- 90
2019-08-15 19:00:00 17.6 5 Noroeste 17 Noroeste 0 -- -- 84
2019-08-15 18:00:00 17.3 5 Noroeste 13 Noroeste 0 -- -- 86
2019-08-15 17:00:00 17 6 Noroeste 12 Norte 0 -- -- 86
2019-08-15 16:00:00 17.2 8 Noroeste 15 Noroeste 0 -- -- 84
2019-08-15 15:00:00 17.4 10 Noroeste 19 Noroeste 0 -- -- 84
2019-08-15 14:00:00 18.9 3 Nordeste 18 Noroeste 0 -- -- 77
2019-08-15 13:00:00 18.2 10 Noroeste 17 Noroeste 0 -- -- 81
2019-08-15 12:00:00 15.7 4 Noroeste 12 Noroeste 0 -- -- 94
2019-08-15 11:00:00 14.9 7 Noroeste 12 Noroeste 0.2 -- -- 99
2019-08-15 10:00:00 14.6 2 Noroeste 12 Noroeste 0.2 -- -- 100
2019-08-15 09:00:00 14.3 5 Noroeste 10 Noroeste 0.6 -- -- 100
2019-08-15 08:00:00 14.2 2 Norte 7 Norte 0.6 -- -- 100
2019-08-15 07:00:00 14.2 3 Noroeste 14 Noroeste 0.6 -- -- 100
2019-08-15 06:00:00 14.5 5 Norte 16 Norte 0.4 -- -- 100
2019-08-15 05:00:00 15.1 6 Noroeste 18 Noroeste 0.4 -- -- 100
2019-08-15 04:00:00 16 6 Noroeste 14 Noroeste 2.4 -- -- 99
2019-08-15 03:00:00 16.6 0 Calma 3 Este 0.8 -- -- 99
2019-08-15 02:00:00 16.6 0 Calma 4 Este 0.8 -- -- 99
2019-08-15 01:00:00 16.4 2 Sudeste 4 Noroeste 0.6 -- -- 98
2019-08-15 00:00:00 16.3 3 Sudeste 10 Sudeste 0.2 -- -- 97
2019-08-14 23:00:00 16.6 2 Sudeste 5 Sudeste 0 -- -- 93
2019-08-14 22:00:00 16.9 0 Calma 10 Noroeste 0 -- -- 89
2019-08-14 21:00:00 17.1 6 Noroeste 18 Norte 0 -- -- 87
2019-08-14 20:00:00 20.7 9 Noroeste 15 Oeste 0 -- -- 70
2019-08-14 19:00:00 21.5 4 Noroeste 12 Noroeste 0 -- -- 63
2019-08-14 18:00:00 21.5 5 Noroeste 14 Noroeste 0 -- -- 57
2019-08-14 17:00:00 22 7 Noroeste 16 Noroeste 0 -- -- 58
2019-08-14 16:00:00 21.7 11 Noroeste 16 Noroeste 0 -- -- 56
2019-08-14 15:00:00 22.6 10 Noroeste 20 Noroeste 0 -- -- 60
2019-08-14 14:00:00 22.8 12 Noroeste 19 Noroeste 0 -- -- 62
2019-08-14 13:00:00 22.2 7 Noroeste 17 Noroeste 0 -- -- 58
2019-08-14 12:00:00 21.5 5 Este 12 Noroeste 0 -- -- 59
2019-08-14 11:00:00 21.1 4 Oeste 9 Noroeste 0 -- -- 57
2019-08-14 10:00:00 18.4 5 Este 8 Sudeste 0 -- -- 63
2019-08-14 09:00:00 15 3 Sudeste 11 Sudeste 0 -- -- 78
2019-08-14 08:00:00 13.5 2 Sur 10 Sudeste 0 -- -- 81
2019-08-14 07:00:00 12.9 3 Sudeste 7 Sudeste 0 -- -- 84
2019-08-14 06:00:00 14.3 0 Calma 10 Sudeste 0 -- -- 79
2019-08-14 05:00:00 13.6 2 Sur 11 Sudeste 0 -- -- 77
2019-08-14 04:00:00 14.2 3 Sur 14 Sudeste 0 -- -- 75
2019-08-14 03:00:00 11.3 0 Calma 5 Este 0 -- -- 74
2019-08-14 02:00:00 11.3 0 Calma 6 Sudeste 0 -- -- 76
2019-08-14 01:00:00 11.3 2 Sur 9 Este 0 -- -- 81
2019-08-14 00:00:00 11.7 0 Calma 9 Sur 0 -- -- 89
2019-08-13 23:00:00 11.8 0 Calma 4 Sudeste 0 -- -- 92
2019-08-13 22:00:00 12.8 0 Calma 4 Sudeste 0 -- -- 91
2019-08-13 21:00:00 15.1 2 Sudeste 10 Noroeste 0 -- -- 84
2019-08-13 20:00:00 18.9 5 Noroeste 10 Noroeste 0 -- -- 71
2019-08-13 19:00:00 19.9 5 Oeste 14 Noroeste 0 -- -- 70
2019-08-13 18:00:00 19.6 9 Noroeste 17 Noroeste 0 -- -- 72
2019-08-13 17:00:00 17.9 8 Noroeste 18 Noroeste 0 -- -- 75
2019-08-13 16:00:00 19.4 9 Noroeste 19 Noroeste 0 -- -- 68
2019-08-13 15:00:00 19.4 10 Noroeste 20 Noroeste 0 -- -- 64
2019-08-13 14:00:00 18.8 8 Noroeste 17 Noroeste 0 -- -- 64
2019-08-13 13:00:00 17.4 9 Noroeste 15 Noroeste 0 -- -- 63
2019-08-13 12:00:00 15.9 5 Noroeste 13 Noroeste 0 -- -- 72
2019-08-13 11:00:00 14.7 7 Noroeste 10 Noroeste 0 -- -- 71
2019-08-13 10:00:00 13.1 0 Calma 6 Nordeste 0 -- -- 76
2019-08-13 09:00:00 10.9 3 Este 8 Sudeste 0 -- -- 85
2019-08-13 08:00:00 -- 2 Sudeste 6 Este 0 -- -- --
2019-08-13 07:00:00 9.1 2 Sudeste 5 Sudeste 0 -- -- 90
2019-08-13 06:00:00 8.9 0 Calma 9 Sudeste 0 -- -- 89
2019-08-13 05:00:00 8.6 2 Sudeste 8 Sudeste 0 -- -- 90
2019-08-13 04:00:00 9.1 3 Sudeste 8 Sudeste 0 -- -- 90
2019-08-13 03:00:00 10.1 3 Sudeste 8 Este 0 -- -- 90
2019-08-13 02:00:00 10.5 2 Sudeste 9 Este 0 -- -- 94
2019-08-13 01:00:00 11.3 3 Este 5 Sudeste 0 -- -- 92
2019-08-13 00:00:00 11.4 2 Sur 4 Este 0 -- -- 96
2019-08-12 23:00:00 11.3 0 Calma 4 Sudeste 0 -- -- 94
2019-08-12 22:00:00 11.7 0 Calma 4 Este 0 -- -- 93
2019-08-12 21:00:00 12.8 0 Calma 16 Noroeste 0 -- -- 88
2019-08-12 20:00:00 13.7 3 Oeste 17 Norte 0 -- -- 80
2019-08-12 19:00:00 14.1 9 Noroeste 20 Noroeste 0 -- -- 78
2019-08-12 18:00:00 14.1 10 Noroeste 24 Noroeste 0.2 -- -- 81
2019-08-12 17:00:00 14 5 Noroeste 22 Noroeste 0 -- -- 85
2019-08-12 16:00:00 13.6 9 Noroeste 20 Norte 0 -- -- 85
2019-08-12 15:00:00 14.4 7 Norte 23 Noroeste 0 -- -- 79
2019-08-12 14:00:00 13.9 15 Noroeste 26 Norte 0.2 -- -- 79
2019-08-12 13:00:00 13.4 8 Norte 26 Noroeste 0 -- -- 81
2019-08-12 12:00:00 14 14 Norte 24 Norte 0 -- -- 75
2019-08-12 11:00:00 12.7 8 Norte 22 Norte 0 -- -- 79
2019-08-12 10:00:00 12.1 5 Norte 12 Nordeste 0 -- -- 85
2019-08-12 09:00:00 11.3 2 Sur 9 Sudoeste 0 -- -- 91
2019-08-12 08:00:00 11.1 0 Calma 17 Noroeste 0 -- -- 91
2019-08-12 07:00:00 11 2 Sudeste 12 Norte 0 -- -- 93
2019-08-12 06:00:00 11.3 5 Norte 10 Norte 0 -- -- 92
2019-08-12 05:00:00 10.8 0 Calma 6 Sur 0 -- -- 95
2019-08-12 04:00:00 10.5 2 Sur 9 Este 0 -- -- 94
2019-08-12 03:00:00 10 3 Sudeste 10 Sudeste 0 -- -- 93
2019-08-12 02:00:00 10.6 0 Calma 6 Sudeste 0 -- -- 94
2019-08-12 01:00:00 11.1 3 Sudeste 6 Sudeste 1.2 -- -- 97
2019-08-12 00:00:00 11.3 3 Sudeste 6 Sur 0 -- -- 96
2019-08-11 23:00:00 11.3 0 Calma 8 Sur 0 -- -- 95
2019-08-11 22:00:00 12.1 2 Sudeste 6 Noroeste 0 -- -- 95
2019-08-11 21:00:00 13 2 Noroeste 5 Norte 0 -- -- 95
2019-08-11 20:00:00 13.6 5 Noroeste 8 Norte 0 -- -- 92
2019-08-11 19:00:00 14.4 4 Noroeste 8 Oeste 0.2 -- -- 90
2019-08-11 18:00:00 13 5 Oeste 23 Noroeste 7.8 -- -- 98
2019-08-11 17:00:00 14.5 5 Noroeste 17 Noroeste 0 -- -- 92
2019-08-11 16:00:00 16.6 8 Noroeste 17 Oeste 0 -- -- 83
2019-08-11 15:00:00 15 6 Norte 12 Noroeste 0 -- -- 89
2019-08-11 14:00:00 14 6 Norte 17 Norte 0 -- -- 94
2019-08-11 13:00:00 14.2 4 Norte 15 Norte 2 -- -- 94
2019-08-11 12:00:00 15.4 9 Noroeste 15 Noroeste 0 -- -- 86
2019-08-11 11:00:00 14.3 0 Calma 11 Noroeste 0 -- -- 89
2019-08-11 10:00:00 13.5 3 Noroeste 6 Norte 0 -- -- 94
2019-08-11 09:00:00 12.9 3 Noroeste 18 Noroeste 0 -- -- 95
2019-08-11 08:00:00 12.3 3 Sudeste 8 Este 1.2 -- -- 97
2019-08-11 07:00:00 12.2 3 Sudeste 5 Este 1.4 -- -- 98
2019-08-11 06:00:00 12.3 2 Noroeste 9 Este 3 -- -- 97
2019-08-11 05:00:00 12.5 4 Sudeste 8 Este 2.4 -- -- 93
2019-08-11 04:00:00 13.5 4 Este 7 Este 0 -- -- 94
2019-08-11 03:00:00 13.5 3 Nordeste 5 Sur 0 -- -- 92
2019-08-11 02:00:00 13.7 3 Norte 8 Norte 0 -- -- 87
2019-08-11 01:00:00 14 7 Norte 10 Noroeste 0 -- -- 70
2019-08-11 00:00:00 13.8 3 Norte 9 Norte 0 -- -- 69
2019-08-10 23:00:00 12.3 3 Sur 12 Sur 0 -- -- 77
2019-08-10 22:00:00 13.9 3 Sudeste 6 Sur 0 -- -- 85
2019-08-10 21:00:00 14.6 0 Calma 8 Sudeste 0 -- -- 82
2019-08-10 20:00:00 14.8 3 Este 15 Nordeste 0 -- -- 78
2019-08-10 19:00:00 14.9 8 Noroeste 15 Noroeste 0 -- -- 85
2019-08-10 18:00:00 15.3 5 Noroeste 17 Oeste 0 -- -- 85
2019-08-10 17:00:00 15 9 Noroeste 19 Noroeste 0 -- -- 88
2019-08-10 16:00:00 15.5 8 Noroeste 17 Oeste 0 -- -- 88
2019-08-10 15:00:00 16.1 9 Noroeste 19 Noroeste 0 -- -- 87
2019-08-10 14:00:00 16.8 8 Noroeste 24 Noroeste 0 -- -- 81
2019-08-10 13:00:00 17.3 10 Noroeste 19 Noroeste 0 -- -- 82
2019-08-10 12:00:00 16.9 4 Noroeste 14 Noroeste 0 -- -- 82
2019-08-10 11:00:00 15.7 8 Noroeste 14 Noroeste 0 -- -- 90
2019-08-10 10:00:00 15.5 6 Noroeste 11 Noroeste 0 -- -- 92
2019-08-10 09:00:00 15.1 8 Noroeste 16 Noroeste 0 -- -- 95
2019-08-10 08:00:00 15.3 3 Noroeste 6 Noroeste 0 -- -- 97
2019-08-10 07:00:00 15.2 0 Calma 7 Noroeste 0 -- -- 97
2019-08-10 06:00:00 15.2 5 Noroeste 14 Noroeste 0 -- -- 97
2019-08-10 05:00:00 15.6 2 Oeste 8 Norte 0 -- -- 98
2019-08-10 04:00:00 15.5 3 Sur 5 Sur 0 -- -- 93
2019-08-10 03:00:00 15.9 2 Nordeste 8 Sur 0 -- -- 90
2019-08-10 02:00:00 15.4 3 Sudeste 6 Sur 0 -- -- 90
2019-08-10 01:00:00 15.3 5 Sudeste 10 Sudeste 0 -- -- 89
2019-08-10 00:00:00 15.4 6 Sudeste 13 Sudeste 0 -- -- 88
2019-08-09 23:00:00 16.4 6 Sudeste 14 Sudeste 0 -- -- 80
2019-08-09 22:00:00 17.4 7 Sudeste 12 Sudeste 0 -- -- 87
2019-08-09 21:00:00 18.8 3 Este 5 Noroeste 0 -- -- 89
2019-08-09 20:00:00 20.2 0 Calma 9 Noroeste 0 -- -- 83
2019-08-09 19:00:00 19.9 6 Noroeste 23 Noroeste 0 -- -- 85
2019-08-09 18:00:00 21.8 7 Noroeste 34 Sudeste 0 -- -- 76
2019-08-09 17:00:00 24.8 17 Sudeste 48 Sudeste 0 -- -- 34
2019-08-09 16:00:00 24.5 14 Sudeste 57 Sudeste 0 -- -- 40
2019-08-09 15:00:00 23.2 11 Oeste 47 Sudeste 0 -- -- 50
2019-08-09 14:00:00 23.5 16 Sudeste 43 Sudeste 0 -- -- 50
2019-08-09 13:00:00 24 26 Sudeste 53 Sudeste 0 -- -- 51
2019-08-09 12:00:00 22.7 18 Sudeste 53 Sudeste 0 -- -- 59
2019-08-09 11:00:00 22.1 17 Sudeste 47 Sudeste 0 -- -- 74
2019-08-09 10:00:00 22.5 13 Sudeste 41 Sur 0 -- -- 71
2019-08-09 09:00:00 22.3 14 Sudeste 46 Sudeste 0 -- -- 69
2019-08-09 08:00:00 22.3 17 Sudeste 53 Sudeste 0 -- -- 69
2019-08-09 07:00:00 22.7 23 Sudeste 49 Sudeste 0 -- -- 66
2019-08-09 06:00:00 22.6 13 Sudeste 36 Este 0 -- -- 65
2019-08-09 05:00:00 23.2 10 Sudeste 37 Sudeste 0 -- -- 60
2019-08-09 04:00:00 24 14 Sudeste 44 Sur 0 -- -- 58
2019-08-09 03:00:00 24.4 14 Sudeste 42 Sudeste 0 -- -- 55
2019-08-09 02:00:00 24.5 18 Sudeste 69 Sudeste 0 -- -- 58
2019-08-09 01:00:00 25.3 21 Sudeste 52 Este 0 -- -- 56
2019-08-09 00:00:00 25.8 16 Sudeste 41 Sudeste 0 -- -- 55
2019-08-08 23:00:00 26.4 15 Sudeste 31 Sudeste 0 -- -- 53
2019-08-08 22:00:00 27.1 13 Este 41 Sudeste 0 -- -- 48
2019-08-08 21:00:00 27.6 6 Sur 26 Sudeste 0 -- -- 50
2019-08-08 20:00:00 28.7 12 Sudeste 41 Sudeste 0 -- -- 50
2019-08-08 19:00:00 29 11 Sur 34 Sudeste 0 -- -- 50
2019-08-08 18:00:00 28.7 10 Sudeste 24 Sudeste 0 -- -- 52
2019-08-08 17:00:00 27.7 8 Sudeste 28 Sudeste 0 -- -- 55
2019-08-08 16:00:00 26.8 10 Sudeste 24 Sudeste 0 -- -- 61
2019-08-08 15:00:00 26.4 15 Sudeste 36 Sur 0 -- -- 60
2019-08-08 14:00:00 26.2 8 Sudeste 38 Sudeste 0 -- -- 59
2019-08-08 13:00:00 25.4 6 Nordeste 36 Noroeste 0 -- -- 57
2019-08-08 12:00:00 24.5 9 Este 28 Sudeste 0 -- -- 60
2019-08-08 11:00:00 23.8 6 Sudeste 27 Sudeste 0 -- -- 63
2019-08-08 10:00:00 22.3 9 Sudeste 26 Sudeste 0 -- -- 68
2019-08-08 09:00:00 20.6 8 Nordeste 24 Sur 0 -- -- 74
2019-08-08 08:00:00 20.5 4 Sudeste 26 Sur 0 -- -- 71
2019-08-08 07:00:00 20.3 10 Sur 21 Sur 0 -- -- 71
2019-08-08 06:00:00 20.8 8 Sur 24 Sudeste 0 -- -- 69
2019-08-08 05:00:00 21.6 12 Sur 36 Sudeste 0 -- -- 64
2019-08-08 04:00:00 22.1 7 Sur 36 Sudeste 0 -- -- 60
2019-08-08 03:00:00 20.7 5 Sudeste 23 Sudeste 0 -- -- 68
2019-08-08 02:00:00 19 5 Sudeste 16 Este 0 -- -- 74
2019-08-08 01:00:00 19.6 4 Sudeste 15 Sudeste 0 -- -- 71
2019-08-08 00:00:00 20.3 4 Sudeste 32 Sudeste 0 -- -- 67
2019-08-07 23:00:00 20.8 9 Este 25 Sudeste 0 -- -- 65
2019-08-07 22:00:00 21.7 9 Sudeste 27 Sur 0 -- -- 62
2019-08-07 21:00:00 22.3 14 Sudeste 32 Sudeste 0 -- -- 59
2019-08-07 20:00:00 22.7 8 Sudeste 19 Sudeste 0 -- -- 56
2019-08-07 19:00:00 22.7 13 Sudeste 29 Sudeste 0 -- -- 60
2019-08-07 18:00:00 23.3 3 Noroeste 9 Noroeste 0 -- -- 79
2019-08-07 17:00:00 24.1 5 Noroeste 16 Noroeste 0 -- -- 72
2019-08-07 16:00:00 24.9 7 Noroeste 17 Noroeste 0 -- -- 68
2019-08-07 15:00:00 25.3 6 Noroeste 14 Noroeste 0 -- -- 65
2019-08-07 14:00:00 24.5 6 Noroeste 14 Oeste 0 -- -- 59
2019-08-07 13:00:00 22.8 8 Noroeste 16 Noroeste 0 -- -- 70
2019-08-07 12:00:00 21.1 8 Noroeste 15 Noroeste 0 -- -- 74
2019-08-07 11:00:00 21.2 4 Noroeste 7 Noroeste 0 -- -- 69
2019-08-07 10:00:00 18.7 2 Este 6 Sudeste 0 -- -- 81
2019-08-07 09:00:00 15.5 0 Calma 6 Este 0 -- -- 91
2019-08-07 08:00:00 15.6 3 Sudeste 6 Sudeste 0 -- -- 91
2019-08-07 07:00:00 15.5 0 Calma 6 Sudeste 0 -- -- 93
2019-08-07 06:00:00 15.7 0 Calma 6 Sudeste 0 -- -- 93
2019-08-07 05:00:00 16 2 Este 6 Sur 0 -- -- 92
2019-08-07 04:00:00 16.5 3 Sudeste 10 Este 0 -- -- 91
2019-08-07 03:00:00 16 4 Sudeste 13 Sudeste 0 -- -- 94
2019-08-07 02:00:00 15.9 6 Sudeste 12 Sudeste 0 -- -- 95
2019-08-07 01:00:00 16.1 5 Norte 11 Sudeste 0.4 -- -- 96
2019-08-07 00:00:00 16.4 2 Sudeste 12 Sudoeste 0 -- -- 94
2019-08-06 23:00:00 16.6 5 Este 10 Este 0 -- -- 92
2019-08-06 22:00:00 16.9 3 Este 6 Este 0 -- -- 88
2019-08-06 21:00:00 17.3 3 Noroeste 9 Noroeste 0 -- -- 85
2019-08-06 20:00:00 17.9 4 Noroeste 14 Noroeste 0 -- -- 80
2019-08-06 19:00:00 18.6 5 Norte 15 Norte 0 -- -- 81
2019-08-06 18:00:00 19.4 6 Noroeste 13 Noroeste 0 -- -- 83
2019-08-06 17:00:00 20.1 7 Noroeste 18 Noroeste 0 -- -- 77
2019-08-06 16:00:00 23.3 13 Noroeste 23 Noroeste 0 -- -- 76
2019-08-06 15:00:00 24 8 Noroeste 15 Noroeste 0 -- -- 70
2019-08-06 14:00:00 23.1 6 Noroeste 15 Noroeste 0 -- -- 67
2019-08-06 13:00:00 22.4 9 Noroeste 14 Noroeste 0 -- -- 63
2019-08-06 12:00:00 21.6 11 Noroeste 16 Norte 0 -- -- 63
2019-08-06 11:00:00 20.4 3 Oeste 12 Noroeste 0 -- -- 63
2019-08-06 10:00:00 18.7 4 Norte 6 Norte 0 -- -- 73
2019-08-06 09:00:00 16.3 2 Sur 10 Este 0 -- -- 79
2019-08-06 08:00:00 14.9 4 Sudeste 7 Sudeste 0 -- -- 77
2019-08-06 07:00:00 14 3 Sudeste 8 Sudeste 0 -- -- 78
2019-08-06 06:00:00 13.7 3 Sudeste 8 Sudeste 0 -- -- 79
2019-08-06 05:00:00 13.8 2 Sudeste 9 Sudeste 0 -- -- 77
2019-08-06 04:00:00 13.9 3 Sudeste 12 Sur 0 -- -- 76
2019-08-06 03:00:00 13.6 3 Sudeste 11 Sudeste 0 -- -- 81
2019-08-06 02:00:00 13.4 3 Sudeste 6 Sudeste 0 -- -- 83
2019-08-06 01:00:00 13.8 2 Sudeste 9 Sudeste 0 -- -- 80
2019-08-06 00:00:00 14.2 0 Calma 9 Este 0 -- -- 84
2019-08-05 23:00:00 16 4 Sudeste 10 Este 0 -- -- 86
2019-08-05 22:00:00 17 0 Calma 5 Norte 0 -- -- 94
2019-08-05 21:00:00 18.5 3 Norte 7 Noroeste 0 -- -- 91
2019-08-05 20:00:00 20.9 4 Noroeste 13 Norte 0 -- -- 81
2019-08-05 19:00:00 21.1 8 Noroeste 12 Norte 0 -- -- 81
2019-08-05 18:00:00 20 4 Noroeste 9 Noroeste 0 -- -- 86
2019-08-05 17:00:00 18.6 8 Noroeste 18 Noroeste 0 -- -- 90
2019-08-05 16:00:00 20.7 9 Noroeste 21 Noroeste 0 -- -- 86
2019-08-05 15:00:00 -- 10 Noroeste 17 Norte 0 -- -- --
2019-08-05 14:00:00 21.7 8 Noroeste 15 Noroeste 0 -- -- 77
2019-08-05 13:00:00 20.5 7 Noroeste 14 Noroeste 0 -- -- 80
2019-08-05 12:00:00 20.3 6 Noroeste 12 Noroeste 0 -- -- 80
2019-08-05 11:00:00 18.9 4 Noroeste 8 Noroeste 0 -- -- 82
2019-08-05 10:00:00 17.5 0 Calma 4 Sudeste 0 -- -- 85
2019-08-05 09:00:00 14.1 3 Sudeste 6 Este 0 -- -- 95
2019-08-05 08:00:00 13.2 0 Calma 6 Sur 0 -- -- 96
2019-08-05 07:00:00 13.3 0 Calma 5 Sudeste 0 -- -- 95
2019-08-05 06:00:00 13.3 0 Calma 5 Sur 0 -- -- 95
2019-08-05 05:00:00 13.3 0 Calma 4 Sudeste 0 -- -- 95
2019-08-05 04:00:00 13.5 3 Sudeste 6 Este 0 -- -- 95
2019-08-05 03:00:00 13.6 0 Calma 4 Sudeste 0 -- -- 95
2019-08-05 02:00:00 14.1 2 Sudeste 4 Sur 0 -- -- 94
2019-08-05 01:00:00 14.5 2 Sudeste 7 Sudeste 0 -- -- 93
2019-08-05 00:00:00 14.9 3 Sudeste 9 Sudeste 0 -- -- 93
2019-08-04 23:00:00 14.8 4 Sudeste 11 Este 0 -- -- 94
2019-08-04 22:00:00 15.9 5 Este 9 Este 0 -- -- 91
2019-08-04 21:00:00 15.9 4 Sudeste 8 Sur 0 -- -- 93
2019-08-04 20:00:00 16 4 Sudeste 9 Oeste 0 -- -- 96
2019-08-04 19:00:00 15.8 6 Noroeste 17 Noroeste 0.6 -- -- 100
2019-08-04 18:00:00 16.5 5 Noroeste 11 Norte 0 -- -- 99
2019-08-04 17:00:00 16.5 5 Noroeste 12 Norte 0 -- -- 99
2019-08-04 16:00:00 17.1 8 Noroeste 18 Norte 0 -- -- 95
2019-08-04 15:00:00 19.9 8 Noroeste 18 Noroeste 0 -- -- 85
2019-08-04 14:00:00 20.9 9 Noroeste 17 Noroeste 0 -- -- 79
2019-08-04 13:00:00 21 9 Noroeste 15 Noroeste 0 -- -- 76
2019-08-04 12:00:00 19.8 7 Noroeste 13 Noroeste 0 -- -- 76
2019-08-04 11:00:00 18.5 4 Norte 7 Norte 0 -- -- 76
2019-08-04 10:00:00 16.8 3 Sur 8 Sur 0 -- -- 81
2019-08-04 09:00:00 15.8 3 Sudeste 9 Sudeste 0 -- -- 85
2019-08-04 08:00:00 14.2 7 Sudeste 13 Sudeste 0 -- -- 87
2019-08-04 07:00:00 12.8 5 Sudeste 9 Sur 0 -- -- 91
2019-08-04 06:00:00 12.3 2 Sudeste 8 Este 0 -- -- 87
2019-08-04 05:00:00 12.7 0 Calma 7 Sudeste 0 -- -- 86
2019-08-04 04:00:00 13.1 2 Sudeste 6 Sudeste 0 -- -- 88
2019-08-04 03:00:00 14 5 Sudeste 13 Sudeste 0 -- -- 91
2019-08-04 02:00:00 14.7 3 Sudeste 10 Sudeste 0 -- -- 97
2019-08-04 01:00:00 15.8 4 Sudeste 8 Sudeste 0 -- -- 94
2019-08-04 00:00:00 16.4 4 Sudeste 7 Sur 0 -- -- 96
2019-08-03 23:00:00 16.7 3 Norte 5 Noroeste 0 -- -- 99
2019-08-03 22:00:00 17.2 0 Calma 6 Noroeste 0.2 -- -- 99
2019-08-03 21:00:00 17.3 6 Noroeste 10 Noroeste 0 -- -- 99
2019-08-03 20:00:00 17.9 4 Noroeste 12 Noroeste 0 -- -- 98
2019-08-03 19:00:00 18.4 6 Noroeste 14 Noroeste 0 -- -- 96
2019-08-03 18:00:00 19.4 6 Noroeste 17 Noroeste 0 -- -- 93
2019-08-03 17:00:00 22 10 Noroeste 22 Noroeste 0 -- -- 84
2019-08-03 16:00:00 24.5 12 Noroeste 22 Noroeste 0 -- -- 78
2019-08-03 15:00:00 25 12 Noroeste 19 Noroeste 0 -- -- 78
2019-08-03 14:00:00 24.8 9 Noroeste 14 Noroeste 0 -- -- 71
2019-08-03 13:00:00 23.8 5 Noroeste 12 Noroeste 0 -- -- 70
2019-08-03 12:00:00 22.7 6 Noroeste 8 Noroeste 0 -- -- 55
2019-08-03 11:00:00 20.7 3 Noroeste 5 Noroeste 0 -- -- 59
2019-08-03 10:00:00 19 0 Calma 4 Norte 0 -- -- 62
2019-08-03 09:00:00 15.3 0 Calma 6 Sur 0 -- -- 71
2019-08-03 08:00:00 14.3 0 Calma 5 Sudeste 0 -- -- 70
2019-08-03 07:00:00 13.4 2 Sudeste 8 Este 0 -- -- 75
2019-08-03 06:00:00 13 0 Calma 8 Sur 0 -- -- 85
2019-08-03 05:00:00 13.5 3 Sudeste 8 Sur 0 -- -- 93
2019-08-03 04:00:00 14 3 Sur 5 Sudeste 0 -- -- 97
2019-08-03 03:00:00 13.8 2 Sudeste 8 Sur 0 -- -- 97
2019-08-03 02:00:00 14.3 2 Sudeste 8 Sudeste 0 -- -- 95
2019-08-03 01:00:00 15.7 3 Sudeste 9 Sudeste 0 -- -- 92
2019-08-03 00:00:00 17.3 0 Calma 2 Norte 0 -- -- 97
2019-08-02 23:00:00 17.6 0 Calma 4 Noroeste 0 -- -- 96
2019-08-02 22:00:00 18.2 3 Noroeste 9 Norte 0 -- -- 94
2019-08-02 21:00:00 19 6 Noroeste 14 Norte 0 -- -- 92
2019-08-02 20:00:00 20.3 6 Noroeste 13 Noroeste 0 -- -- 88
2019-08-02 19:00:00 22.8 7 Noroeste 16 Norte 0 -- -- 80
2019-08-02 18:00:00 23.4 10 Noroeste 18 Noroeste 0 -- -- 76
2019-08-02 17:00:00 24.1 9 Noroeste 17 Noroeste 0 -- -- 76
2019-08-02 16:00:00 23.3 10 Noroeste 20 Norte 0 -- -- 75
2019-08-02 15:00:00 22.8 8 Noroeste 14 Noroeste 0 -- -- 72
2019-08-02 14:00:00 22 8 Noroeste 16 Noroeste 0 -- -- 73
2019-08-02 13:00:00 20.6 6 Norte 13 Noroeste 0 -- -- 75
2019-08-02 12:00:00 19.2 5 Noroeste 13 Noroeste 0 -- -- 75
2019-08-02 11:00:00 17.8 4 Noroeste 7 Noroeste 0 -- -- 76
2019-08-02 10:00:00 16.4 0 Calma 6 Este 0 -- -- 82
2019-08-02 09:00:00 12.3 4 Este 7 Este 0 -- -- 94
2019-08-02 08:00:00 11.4 3 Sudeste 8 Sudeste 0 -- -- 96
2019-08-02 07:00:00 10.8 3 Sudeste 6 Este 0 -- -- 97
2019-08-02 06:00:00 11 3 Sudeste 5 Sur 0 -- -- 97
2019-08-02 05:00:00 11.6 2 Sudeste 9 Sur 0 -- -- 96
2019-08-02 04:00:00 11.9 4 Sudeste 9 Sudeste 0 -- -- 96
2019-08-02 03:00:00 11.9 0 Calma 7 Sudeste 0 -- -- 96
2019-08-02 02:00:00 12.9 2 Sudeste 8 Sudeste 0 -- -- 95
2019-08-02 01:00:00 13 3 Sudeste 9 Sudeste 0 -- -- 97
2019-08-02 00:00:00 13.9 2 Sudeste 4 Sudeste 0 -- -- 98
2019-08-01 23:00:00 14.1 0 Calma 2 Sur 0 -- -- 98
2019-08-01 22:00:00 14.8 0 Calma 5 Noroeste 0 -- -- 99
2019-08-01 21:00:00 14.8 0 Calma 4 Noroeste 0 -- -- 98
2019-08-01 20:00:00 14.9 0 Calma 9 Noroeste 0 -- -- 98
2019-08-01 19:00:00 14.8 7 Noroeste 13 Noroeste 0 -- -- 99
2019-08-01 18:00:00 15.5 6 Noroeste 12 Noroeste 0 -- -- 98
2019-08-01 17:00:00 16.4 5 Noroeste 11 Noroeste 0 -- -- 94
2019-08-01 16:00:00 16.8 6 Noroeste 13 Noroeste 0 -- -- 93
2019-08-01 15:00:00 17.5 2 Noroeste 5 Noroeste 0 -- -- 90
2019-08-01 14:00:00 15.7 0 Calma 5 Noroeste 0 -- -- 97
2019-08-01 13:00:00 15.1 3 Noroeste 7 Noroeste 0 -- -- 97
2019-08-01 12:00:00 14.8 0 Calma 8 Noroeste 0 -- -- 98
2019-08-01 11:00:00 14.7 5 Norte 14 Norte 0 -- -- 97
2019-08-01 10:00:00 14.6 0 Calma 4 Norte 0 -- -- 96
2019-08-01 09:00:00 13.6 0 Calma 3 Sur 0 -- -- 99
2019-08-01 08:00:00 13.4 2 Noroeste 4 Noroeste 0 -- -- 99
2019-08-01 07:00:00 13.4 0 Calma 6 Noroeste 0 -- -- 98
2019-08-01 06:00:00 13.3 5 Norte 9 Norte 0 -- -- 98
2019-08-01 05:00:00 13.1 6 Noroeste 14 Noroeste 0 -- -- 97
2019-08-01 04:00:00 12.6 4 Norte 10 Noroeste 0 -- -- 97
2019-08-01 03:00:00 12 3 Sudeste 9 Sudeste 0 -- -- 96
2019-08-01 02:00:00 12 3 Sudeste 6 Nordeste 0 -- -- 96
2019-08-01 01:00:00 12.2 0 Calma 6 Sur 0 -- -- 94
2019-08-01 00:00:00 13.4 3 Este 5 Sudeste 0 -- -- 95
2019-07-31 23:00:00 14.1 0 Calma 4 Noroeste 0 -- -- 94
2019-07-31 22:00:00 14.5 2 Norte 9 Noroeste 0 -- -- 92
2019-07-31 21:00:00 15.4 4 Noroeste 8 Norte 0 -- -- 90
2019-07-31 20:00:00 16.4 5 Norte 11 Noroeste 0 -- -- 87
2019-07-31 19:00:00 17 5 Noroeste 12 Oeste 0 -- -- 83
2019-07-31 18:00:00 17.5 8 Noroeste 18 Noroeste 0 -- -- 82
2019-07-31 17:00:00 19.1 10 Noroeste 17 Noroeste 0 -- -- 76
2019-07-31 16:00:00 19.5 9 Noroeste 17 Noroeste 0 -- -- 73
2019-07-31 15:00:00 19.3 7 Noroeste 17 Noroeste 0 -- -- 67
2019-07-31 14:00:00 19.1 6 Noroeste 16 Noroeste 0 -- -- 67
2019-07-31 13:00:00 17.8 8 Noroeste 14 Noroeste 0 -- -- 65
2019-07-31 12:00:00 16.6 5 Noroeste 11 Noroeste 0 -- -- 68
2019-07-31 11:00:00 15.1 4 Noroeste 8 Noroeste 0 -- -- 72
2019-07-31 10:00:00 12.8 0 Calma 6 Sur 0 -- -- 84
2019-07-31 09:00:00 9.8 2 Este 6 Sur 0 -- -- 91
2019-07-31 08:00:00 9 0 Calma 6 Este 0 -- -- 92
2019-07-31 07:00:00 9.5 2 Sur 9 Sudeste 0 -- -- 90
2019-07-31 06:00:00 10.1 4 Sur 13 Sudeste 0 -- -- 88
2019-07-31 05:00:00 11.3 3 Sudeste 7 Sudeste 0 -- -- 87
2019-07-31 04:00:00 11.6 0 Calma 8 Sudeste 0 -- -- 94
2019-07-31 03:00:00 11.4 3 Sudeste 5 Sudeste 0 -- -- 96
2019-07-31 02:00:00 11.8 0 Calma 3 Sudeste 0 -- -- 97
2019-07-31 01:00:00 12 0 Calma 3 Sudeste 0 -- -- 97
2019-07-31 00:00:00 12 0 Calma 8 Noroeste 0.2 -- -- 98
2019-07-30 23:00:00 12.3 6 Noroeste 11 Noroeste 0.2 -- -- 96
2019-07-30 22:00:00 12.9 0 Calma 9 Noroeste 0 -- -- 93
2019-07-30 21:00:00 13.6 0 Calma 9 Noroeste 0 -- -- 86
2019-07-30 20:00:00 13.8 5 Noroeste 13 Norte 0 -- -- 85
2019-07-30 19:00:00 14.4 7 Noroeste 15 Noroeste 0 -- -- 79
2019-07-30 18:00:00 15.3 8 Noroeste 16 Noroeste 0 -- -- 72
2019-07-30 17:00:00 14.9 10 Noroeste 22 Noroeste 0 -- -- 74
2019-07-30 16:00:00 15.5 6 Noroeste 20 Noroeste 0 -- -- 73
2019-07-30 15:00:00 15.5 10 Noroeste 21 Noroeste 0 -- -- 75
2019-07-30 14:00:00 15.9 10 Noroeste 20 Noroeste 0 -- -- 72
2019-07-30 13:00:00 15.1 11 Noroeste 24 Noroeste 0 -- -- 72
2019-07-30 12:00:00 15.3 14 Noroeste 25 Norte 0.2 -- -- 67
2019-07-30 11:00:00 14.6 5 Este 14 Este 0 -- -- 73
2019-07-30 10:00:00 12.8 4 Noroeste 14 Sudoeste 0 -- -- 79
2019-07-30 09:00:00 12.2 4 Norte 12 Norte 0 -- -- 80
2019-07-30 08:00:00 11.3 0 Calma 5 Sudeste 0 -- -- 91
2019-07-30 07:00:00 11.3 3 Sudeste 5 Sur 0 -- -- 92
2019-07-30 06:00:00 12.1 5 Norte 26 Norte 0 -- -- 87
2019-07-30 05:00:00 12 2 Este 5 Este 0 -- -- 97
2019-07-30 04:00:00 12.2 0 Calma 5 Norte 0 -- -- 97
2019-07-30 03:00:00 12.5 3 Noroeste 13 Noroeste 0.6 -- -- 96
2019-07-30 02:00:00 12.6 3 Sudeste 9 Norte 2.6 -- -- 100
2019-07-30 01:00:00 12.5 0 Calma 5 Noroeste 2 -- -- 99
2019-07-30 00:00:00 12.6 0 Calma 15 Noroeste 2.4 -- -- 99
2019-07-29 23:00:00 12.8 3 Sur 14 Norte 2.4 -- -- 99
2019-07-29 22:00:00 13 9 Noroeste 17 Norte 2 -- -- 98
2019-07-29 21:00:00 13.5 4 Noroeste 15 Noroeste 1.8 -- -- 97
2019-07-29 20:00:00 13.7 3 Sudeste 18 Norte 0 -- -- 96
2019-07-29 19:00:00 14 9 Noroeste 18 Noroeste 0.2 -- -- 96
2019-07-29 18:00:00 14.7 9 Noroeste 19 Noroeste 0 -- -- 94
2019-07-29 17:00:00 15.3 11 Noroeste 20 Noroeste 0 -- -- 90
2019-07-29 16:00:00 15.2 9 Noroeste 18 Oeste 0 -- -- 92
2019-07-29 15:00:00 15.5 9 Noroeste 22 Noroeste 0 -- -- 94
2019-07-29 14:00:00 17.7 11 Noroeste 25 Noroeste 0 -- -- 85
2019-07-29 13:00:00 19.7 9 Noroeste 17 Noroeste 0 -- -- 76
2019-07-29 12:00:00 19.5 9 Noroeste 15 Noroeste 0 -- -- 76
2019-07-29 11:00:00 18.3 7 Noroeste 13 Noroeste 0 -- -- 77
2019-07-29 10:00:00 17.4 7 Norte 12 Noroeste 0 -- -- 82
2019-07-29 09:00:00 13.7 4 Este 8 Sudeste 0 -- -- 77
2019-07-29 08:00:00 14.6 0 Calma 10 Sudeste 0 -- -- 66
2019-07-29 07:00:00 14.8 4 Sudeste 8 Sudeste 0 -- -- 62
2019-07-29 06:00:00 15.6 4 Sudeste 15 Sudeste 0 -- -- 60
2019-07-29 05:00:00 16.5 5 Sudeste 13 Sur 0 -- -- 55
2019-07-29 04:00:00 16.2 6 Sudeste 13 Este 0 -- -- 57
2019-07-29 03:00:00 17.1 7 Sudeste 14 Sudeste 0 -- -- 56
2019-07-29 02:00:00 15.3 4 Sur 13 Sur 0 -- -- 70
2019-07-29 01:00:00 14 2 Sudeste 6 Sudoeste 0 -- -- 82
2019-07-29 00:00:00 13.8 2 Sudeste 10 Sudeste 0 -- -- 95
2019-07-28 23:00:00 14.3 4 Sudeste 9 Sudeste 0 -- -- 96
2019-07-28 22:00:00 15.9 4 Sudeste 11 Sudeste 0 -- -- 91
2019-07-28 21:00:00 18 0 Calma 11 Noroeste 0 -- -- 84
2019-07-28 20:00:00 20.4 6 Noroeste 12 Noroeste 0 -- -- 75
2019-07-28 19:00:00 20.8 6 Noroeste 18 Noroeste 0 -- -- 75
2019-07-28 18:00:00 21.1 8 Noroeste 13 Noroeste 0 -- -- 77
2019-07-28 17:00:00 18.6 7 Noroeste 19 Noroeste 0 -- -- 79
2019-07-28 16:00:00 19.4 9 Noroeste 17 Noroeste 0 -- -- 76
2019-07-28 15:00:00 20.5 6 Noroeste 15 Noroeste 0 -- -- 75
2019-07-28 14:00:00 19.2 5 Oeste 13 Noroeste 0 -- -- 76
2019-07-28 13:00:00 18.1 8 Norte 17 Noroeste 0 -- -- 71
2019-07-28 12:00:00 18.1 2 Sudoeste 9 Sur 0.2 -- -- 71
2019-07-28 11:00:00 15.4 2 Norte 7 Norte 0 -- -- 80
2019-07-28 10:00:00 13.5 3 Sudeste 6 Sudeste 0 -- -- 92
2019-07-28 09:00:00 12.1 0 Calma 5 Noroeste 0 -- -- 100
2019-07-28 08:00:00 11.9 3 Noroeste 5 Noroeste 0 -- -- 100
2019-07-28 07:00:00 11.7 0 Calma 3 Sur 0 -- -- 100
2019-07-28 06:00:00 11.6 3 Sur 5 Sur 1.2 -- -- 100
2019-07-28 05:00:00 11.7 0 Calma 5 Sudeste 0.2 -- -- 100
2019-07-28 04:00:00 11.6 0 Calma 6 Noroeste 0.6 -- -- 100
2019-07-28 03:00:00 11.9 3 Noroeste 13 Oeste 5 -- -- 100
2019-07-28 02:00:00 12 0 Calma 5 Este 2.4 -- -- 100
2019-07-28 01:00:00 11.8 0 Calma 4 Sudeste 0.4 -- -- 100
2019-07-28 00:00:00 11.7 0 Calma 2 Este 2.8 -- -- 100
2019-07-27 23:00:00 11.7 0 Calma 17 Norte 0.6 -- -- 100
2019-07-26 12:00:00 -- -- -- -- -- -- -- -- --
2019-07-26 11:00:00 14.2 3 Noroeste 22 Noroeste 1 -- -- 100
2019-07-26 10:00:00 14.6 0 Calma 5 Noroeste 1 -- -- 100
2019-07-26 09:00:00 14.1 4 Norte 16 Noroeste 0.2 -- -- 100
2019-07-26 08:00:00 14.4 8 Noroeste 21 Noroeste 0.2 -- -- 100
2019-07-26 07:00:00 15 5 Noroeste 18 Oeste 0.6 -- -- 100
2019-07-26 06:00:00 15.7 6 Noroeste 15 Noroeste 0.6 -- -- 100
2019-07-26 05:00:00 16.2 8 Norte 15 Noroeste 0.2 -- -- 100
2019-07-26 04:00:00 16.5 3 Noroeste 6 Noroeste 0 -- -- 100
2019-07-26 03:00:00 16.4 2 Noroeste 7 Norte 0 -- -- 98
2019-07-26 02:00:00 16.6 0 Calma 4 Oeste 0.2 -- -- 98
2019-07-26 01:00:00 16.8 0 Calma 4 Este 0 -- -- 97
2019-07-26 00:00:00 16.9 2 Este 5 Sudeste 0 -- -- 97